Lid_Strength_Index
7 7 8 11 11 10 13 12 14 12 11 9 7 7 7 6 6 5 5 4 4 3 3 3 3 3 2 2 2 2 2 1
7 7 7 9 9 12 11 16 15 12 12 13 10 9 7 7 6 6 5 4 4 3 3 3 2 2 2 2 2 2 2 1
8 9 10 11 11 11 11 11 15 15 12 10 9 8 8 7 6 5 5 4 4 3 3 3 2 2 2 2 2 2 2 2
11 8 7 8 10 11 13 15 13 13 12 8 7 7 6 6 5 5 4 4 4 3 3 3 3 3 2 2 2 2 2 2
12 10 8 9 9 10 10 12 13 14 12 7 7 7 6 6 5 5 5 5 4 3 3 3 3 3 3 2 2 2 2 2
14 12 10 11 9 9 10 12 13 12 12 9 8 8 7 6 5 5 5 4 5 4 4 3 3 3 3 2 2 2 2 2
10 9 9 9 9 9 10 10 12 11 11 10 8 7 7 6 6 6 5 5 5 4 4 3 3 3 3 2 2 2 2 2
11 9 9 9 9 9 9 9 10 10 10 8 7 6 6 6 5 6 5 5 5 4 4 4 3 3 3 3 2 2 2 3
13 10 10 12 10 9 9 8 9 11 9 7 7 7 6 6 6 5 5 5 5 4 4 4 3 3 3 2 2 2 2 2
13 12 16 11 8 7 8 8 8 8 8 7 7 6 6 6 5 6 5 4 4 4 4 4 3 3 2 2 2 2 3 3
14 14 12 10 8 9 10 10 7 8 7 6 6 7 8 5 4 6 5 5 4 5 3 3 3 3 3 3 3 3 3 3
13 15 15 11 7 6 7 12 8 7 7 7 7 10 8 6 5 5 4 4 4 3 3 3 3 3 3 3 3 3 3 3
13 14 12 8 6 6 12 12 8 7 7 7 9 8 6 6 5 5 5 4 4 4 3 4 3 3 4 3 3 3 2 2
12 15 16 8 7 11 10 8 7 7 7 7 7 6 6 5 5 5 5 4 4 4 4 3 3 3 4 4 3 2 2 2
13 12 9 7 8 7 7 8 7 7 6 6 7 7 6 6 5 5 5 4 4 4 4 4 3 3 4 3 3 2 3 3
12 10 10 7 6 6 6 6 6 6 6 6 7 6 6 6 6 5 5 5 4 4 5 4 3 3 3 3 2 3 3 3
11 10 9 8 7 6 5 5 6 5 5 6 6 6 6 6 6 5 5 4 4 4 5 4 3 3 3 2 2 3 3 4
13 9 9 9 8 8 6 6 6 6 6 5 5 6 5 5 5 5 5 4 4 4 4 4 3 3 3 2 3 3 4 4
9 6 7 6 7 7 7 5 5 5 5 5 5 5 5 5 5 5 4 5 5 5 4 4 4 4 3 3 3 3 3 3